Location: Waning Moon II Observatory
(30.3730°N, 89.7620°W)
Time: 10:00:36
(UTC-05:00)

Meteor 1-21 - Visible Passes

Search period start: 25 August 2016 00:00
Search period end: 04 September 2016 00:00
Orbit: 843 x 890 km, 81.2° (Epoch: 24 August)

Date Brightness Start Highest point End Pass type
(mag) Time Alt. Az. Time Alt. Az. Time Alt. Az.
25 Aug 5.0 21:45:45 10° N 21:49:52 42° NNE 21:49:52 42° NNE visible
25 Aug 6.9 23:30:58 10° NW 23:32:14 13° WNW 23:32:14 13° WNW visible
26 Aug 4.8 21:38:25 10° N 21:42:53 46° NE 21:42:53 46° NE visible
26 Aug 6.9 23:23:42 10° NW 23:25:15 13° WNW 23:25:15 13° WNW visible
27 Aug 4.6 21:31:05 10° N 21:35:57 50° NE 21:35:57 50° NE visible
27 Aug 6.8 23:16:25 10° NW 23:18:19 14° WNW 23:18:19 14° WNW visible
28 Aug 4.4 21:23:45 10° N 21:29:03 54° ENE 21:29:03 54° ENE visible
28 Aug 6.8 23:09:07 10° NW 23:11:24 14° WNW 23:11:24 14° WNW visible
29 Aug 4.3 21:16:25 10° N 21:22:07 56° E 21:22:11 56° E visible
29 Aug 6.8 23:01:52 10° NW 23:04:33 14° W 23:04:33 14° W visible
30 Aug 4.3 21:09:06 10° N 21:14:48 57° E 21:15:22 54° ESE visible
30 Aug 6.7 22:54:34 10° NW 22:57:28 14° W 22:57:45 14° W visible
31 Aug 4.3 21:01:46 10° N 21:07:30 57° E 21:08:38 49° ESE visible
31 Aug 6.7 22:47:18 10° WNW 22:50:09 14° W 22:51:01 13° W visible
01 Sep 4.3 20:54:27 10° N 21:00:11 58° E 21:01:57 41° SE visible
01 Sep 6.8 22:40:02 10° WNW 22:42:48 14° W 22:44:20 13° WSW visible
02 Sep 4.3 20:47:08 10° N 20:52:52 59° E 20:55:21 33° SE visible
02 Sep 6.8 22:32:46 10° WNW 22:35:29 14° W 22:37:45 11° WSW visible
03 Sep 4.3 20:39:48 10° N 20:45:33 59° E 20:48:52 25° SSE visible
03 Sep 6.9 22:25:29 10° WNW 22:28:10 13° W 22:30:51 10° WSW visible
